Location: Newark
(35.1686°N, 108.2815°E)
Time: 04:58:07
(UTC+00:00)

Hubble Space Telescope - Pass Details

Date: 13 April 2020
Orbit: 536 x 540 km, 28.5° (Epoch: 30 May)

Event Time Altitude Azimuth Distance (km) Brightness Sun altitude
Rises 11:49:44 0° 258° (WSW) 2,668 5.5 -7.1°
Reaches altitude 10° 11:52:10 10° 247° (WSW) 1,777 4.2 -7.6°
Maximum altitude 11:55:48 30° 185° (S) 961 1.9 -8.3°
Enters shadow 11:59:16 11° 124° (SE) 1,722 2.7 -9.0°
